DW6963 Weather Reports


time (UTC)temp
C
wind
direction
speed
KPH
gust
KPH
rain 1hr
cm
rain 24hr
cm
rain mn
cm
humidity
%
barometer
mb
20260505010412 21 0 0.0 0.0 0.00 0.00 0.00 54 1005.5
20260505005912 21 0 0.0 0.0 0.00 0.00 0.00 53 1005.6
20260505005412 21 0 0.0 0.0 0.00 0.00 0.00 52 1005.6
20260505004912 21 0 0.0 0.0 0.00 0.00 0.00 51 1005.5
20260505004412 21 0 0.0 0.0 0.00 0.00 0.00 51 1005.5
20260505003913 21 0 0.0 0.0 0.00 0.00 0.00 50 1005.5
20260505002412 22 0 0.0 0.0 0.00 0.00 0.00 49 1005.7
20260505001912 22 0 0.0 0.0 0.00 0.00 0.00 49 1005.7
20260505000912 22 0 0.0 0.0 0.00 0.00 0.00 50 1005.8
20260505000413 22 0 0.0 0.0 0.00 0.00 0.00 50 1005.7
20260504235413 22 0 0.0 0.0 0.00 0.00 0.00 52 1005.8
20260504234413 22 0 0.0 0.0 0.00 0.00 0.00 53 1005.9
20260504233912 22 0 0.0 0.0 0.00 0.00 0.00 52 1005.8
20260504233413 22 0 0.0 0.0 0.00 0.00 0.00 52 1005.8
20260504232912 22 0 0.0 0.0 0.00 0.00 0.00 53 1005.8
20260504232413 22 0 0.0 0.0 0.00 0.00 0.00 55 1005.9
20260504231912 22 0 0.0 0.0 0.00 0.00 0.00 56 1005.9
20260504230912 22 0 0.0 0.0 0.00 0.00 0.00 55 1006.1
20260504230413 22 0 0.0 0.0 0.00 0.00 0.00 55 1006.1
20260504225912 22 0 0.0 0.0 0.00 0.00 0.00 54 1006.2
20260504224913 22 0 0.0 0.0 0.00 0.00 0.00 55 1006.3
20260504224412 22 0 0.0 0.0 0.00 0.00 0.00 55 1006.3
20260504223912 22 0 0.0 0.0 0.00 0.00 0.00 55 1006.4
20260504223412 22 0 0.0 0.0 0.00 0.00 0.00 56 1006.4
20260504222913 22 0 0.0 0.0 0.00 0.00 0.00 55 1006.5
20260504222412 22 0 0.0 0.0 0.00 0.00 0.00 54 1006.5
20260504221912 22 0 0.0 0.0 0.00 0.00 0.00 54 1006.3
20260504220912 22 0 0.0 0.0 0.00 0.00 0.00 53 1006.8
20260504215412 22 0 0.0 0.0 0.00 0.00 0.00 52 1006.9
20260504214912 22 0 0.0 0.0 0.00 0.00 0.00 52 1007.0
20260504213912 22 0 0.0 0.0 0.00 0.00 0.00 52 1007.0
20260504212912 22 0 0.0 0.0 0.00 0.00 0.00 52 1007.2
20260504212413 22 0 0.0 0.0 0.00 0.00 0.00 51 1007.3
20260504211912 22 0 0.0 0.0 0.00 0.00 0.00 53 1007.3
20260504210913 22 0 0.0 0.0 0.00 0.00 0.00 53 1007.4
20260504210412 22 0 0.0 0.0 0.00 0.00 0.00 54 1007.5
20260504205912 22 0 0.0 0.0 0.00 0.00 0.00 54 1007.6
20260504205412 22 0 0.0 0.0 0.00 0.00 0.00 54 1007.5
20260504204912 22 0 0.0 0.0 0.00 0.00 0.00 53 1007.7
20260504204412 22 0 0.0 0.0 0.00 0.00 0.00 58 1007.7
20260504203912 21 0 0.0 0.0 0.00 0.00 0.00 57 1007.6
20260504203412 21 0 0.0 0.0 0.00 0.00 0.00 57 1007.6
20260504202912 21 0 0.0 0.0 0.00 0.00 0.00 59 1007.7
20260504202412 21 0 0.0 0.0 0.00 0.00 0.00 58 1007.7
20260504201912 21 0 0.0 0.0 0.00 0.00 0.00 59 1007.5
20260504201413 20 0 0.0 0.0 0.00 0.00 0.00 60 1007.5
20260504200913 20 0 0.0 0.0 0.00 0.00 0.00 61 1007.9
20260504200412 20 0 0.0 0.0 0.00 0.00 0.00 62 1008.1
20260504195912 20 0 0.0 0.0 0.00 0.00 0.00 64 1007.9
20260504195412 19 0 0.0 0.0 0.00 0.00 0.00 63 1008.2
20260504194912 18 0 0.0 0.0 0.00 0.00 0.00 65 1008.5
20260504194412 18 0 0.0 0.0 0.00 0.00 0.00 65 1008.6
20260504193912 18 0 0.0 0.0 0.00 0.00 0.00 65 1008.8
20260504193413 18 0 0.0 0.0 0.00 0.00 0.00 65 1009.1
20260504192912 18 0 0.0 0.0 0.00 0.00 0.00 64 1008.7
20260504192413 18 0 0.0 0.0 0.00 0.00 0.00 63 1009.4
20260504191912 19 0 0.0 0.0 0.00 0.00 0.00 62 1009.1
20260504191413 19 0 0.0 0.0 0.00 0.00 0.00 62 1009.6
20260504190912 18 0 0.0 0.0 0.00 0.00 0.00 63 1009.3
20260504190413 19 0 0.0 0.0 0.00 0.00 0.00 64 1009.3
20260504185912 19 0 0.0 0.0 0.00 0.00 0.00 61 1009.2
20260504185412 19 0 0.0 0.0 0.00 0.00 0.00 60 1009.1
20260504184912 20 0 0.0 0.0 0.00 0.00 0.00 59 1009.0
20260504184412 20 0 0.0 0.0 0.00 0.00 0.00 59 1008.6
20260504183913 20 0 0.0 0.0 0.00 0.00 0.00 57 1008.5
20260504183413 21 0 0.0 0.0 0.00 0.00 0.00 58 1008.5
20260504182913 21 0 0.0 0.0 0.00 0.00 0.00 60 1008.3
20260504182412 20 0 0.0 0.0 0.00 0.00 0.00 62 1008.2
20260504181413 20 0 0.0 0.0 0.00 0.00 0.00 61 1008.1
20260504180913 20 0 0.0 0.0 0.00 0.00 0.00 59 1008.4
20260504180412 20 0 0.0 0.0 0.00 0.00 0.00 59 1008.3
20260504175912 20 0 0.0 0.0 0.00 0.00 0.00 61 1008.4
20260504175412 20 0 0.0 0.0 0.00 0.00 0.00 60 1008.5
20260504174912 19 0 0.0 0.0 0.00 0.00 0.00 60 1008.3
20260504174413 19 0 0.0 0.0 0.00 0.00 0.00 60 1008.2
20260504173413 19 0 0.0 0.0 0.00 0.00 0.00 61 1008.3
20260504172412 18 0 0.0 0.0 0.00 0.00 0.00 63 1008.4
20260504171912 18 0 0.0 0.0 0.00 0.00 0.00 63 1008.5
20260504170912 18 0 0.0 0.0 0.00 0.00 0.00 62 1008.6
20260504170412 18 0 0.0 0.0 0.00 0.00 0.00 64 1008.6
20260504160413 18 0 0.0 0.0 0.00 0.00 0.00 63 1009.2
20260504150913 16 0 0.0 0.0 0.00 0.00 0.00 67 1009.2
20260504150412 16 0 0.0 0.0 0.00 0.00 0.00 67 1009.2
20260504140913 15 0 0.0 0.0 0.00 0.00 0.00 68 1009.7
20260504130412 13 0 0.0 0.0 0.00 0.00 0.00 68 1010.1
20260504110412 10 0 0.0 0.0 0.00 0.00 0.00 69 1010.0
20260504100412 10 0 0.0 0.0 0.00 0.00 0.00 67 1010.0
20260504081912 11 0 0.0 0.0 0.00 0.00 0.00 64 1010.8
20260504081413 11 0 0.0 0.0 0.00 0.00 0.00 64 1010.8
20260504080912 11 0 0.0 0.0 0.00 0.00 0.00 64 1010.8
20260504050412 11 0 0.0 0.0 0.00 0.00 0.00 59 1012.5
20260504045913 11 0 0.0 0.0 0.00 0.00 0.00 59 1012.5
20260504045413 12 0 0.0 0.0 0.00 0.00 0.00 59 1012.5
20260504044912 12 0 0.0 0.0 0.00 0.00 0.00 58 1012.6
20260504043912 12 0 0.0 0.0 0.00 0.00 0.00 58 1012.7
20260504043413 12 0 0.0 0.0 0.00 0.00 0.00 58 1012.7
20260504042912 12 0 0.0 0.0 0.00 0.00 0.00 58 1012.7
20260504042413 12 0 0.0 0.0 0.00 0.00 0.00 58 1012.8
20260504041912 12 0 0.0 0.0 0.00 0.00 0.00 58 1012.8
20260504041413 12 0 0.0 0.0 0.00 0.00 0.00 57 1013.0
20260504040912 12 0 0.0 0.0 0.00 0.00 0.00 58 1013.0
20260504040416 12 0 0.0 0.0 0.00 0.00 0.00 58 1013.1
20260504035913 12 0 0.0 0.0 0.00 0.00 0.00 58 1013.1
20260504035413 12 0 0.0 0.0 0.00 0.00 0.00 58 1013.2
20260504034912 12 0 0.0 0.0 0.00 0.00 0.00 58 1013.3
20260504034413 12 0 0.0 0.0 0.00 0.00 0.00 57 1013.2
20260504033912 12 0 0.0 0.0 0.00 0.00 0.00 57 1013.2
20260504033413 12 0 0.0 0.0 0.00 0.00 0.00 57 1013.2
20260504032912 12 0 0.0 0.0 0.00 0.00 0.00 56 1013.2
20260504032413 12 0 0.0 0.0 0.00 0.00 0.00 55 1013.3
20260504031912 12 0 0.0 0.0 0.00 0.00 0.00 56 1013.3
20260504031413 12 0 0.0 0.0 0.00 0.00 0.00 55 1013.4
20260504030912 12 0 0.0 0.0 0.00 0.00 0.00 55 1013.4
20260504025912 12 0 0.0 0.0 0.00 0.00 0.00 55 1013.5
20260504025413 12 0 0.0 0.0 0.00 0.00 0.00 54 1013.6
20260504024912 12 0 0.0 0.0 0.00 0.00 0.00 54 1013.7
20260504024412 12 0 0.0 0.0 0.00 0.00 0.00 54 1013.5
20260504023912 12 0 0.0 0.0 0.00 0.00 0.00 55 1013.5
20260504023413 12 0 0.0 0.0 0.00 0.00 0.00 56 1013.5
20260504022913 12 0 0.0 0.0 0.00 0.00 0.00 57 1013.6
20260504022412 12 0 0.0 0.0 0.00 0.00 0.00 59 1013.6
20260504021413 12 0 0.0 0.0 0.00 0.00 0.00 58 1013.6
20260504015913 12 0 0.0 0.0 0.00 0.00 0.00 58 1013.5
20260504015413 12 0 0.0 0.0 0.00 0.00 0.00 58 1013.4
20260504014913 12 0 0.0 0.0 0.00 0.00 0.00 57 1013.4
20260504014413 12 0 0.0 0.0 0.00 0.00 0.00 57 1013.4
20260504013913 12 0 0.0 0.0 0.00 0.00 0.00 59 1013.4
20260504013414 12 0 0.0 0.0 0.00 0.00 0.00 58 1013.4
20260504012912 12 0 0.0 0.0 0.00 0.00 0.00 57 1013.3
20260504012413 12 0 0.0 0.0 0.00 0.00 0.00 56 1013.4
20260504011913 12 0 0.0 0.0 0.00 0.00 0.00 56 1013.5
20260504011413 12 0 0.0 0.0 0.00 0.00 0.00 54 1013.5
20260504010913 12 0 0.0 0.0 0.00 0.00 0.00 55 1013.6